Find Sentinel-1C

NORAD ID: 62261 Int'l Des: 2024-235 Owner: COPERN/ESA Country: I-EU operational
LEOCIRCULARRETROGRADESSO

リアルタイム位置

3D地球を読み込み中...

Sentinel-1Cについて

説明を読み込み中...

次回通過

Passes for default location (London). Set your location on the main map for personalized predictions.

高度履歴

Loading altitude history...

軌道要素

1 62261U 24235A 26106.96113705 .00000124 00000-0 36078-4 0 9995
2 62261 98.1829 115.1427 0001375 91.8127 268.3231 14.59198078 72489
Epoch: Apr 16, 2026 • Age: 6 hours

現在のステータス

高度 723.1 km
速度 7.49 km/s
衛星直下点 -71.25°S, 12.28°W
打ち上げ日 Dec 5, 2024
運用期間 1.3 years
タイプ earth observation

技術仕様

分類 Payload
質量 2157.00 kg
乾燥質量 2027.00 kg
総質量 2157.00 kg
長さ 3.42 m
直径 1.60 m
スパン 21.04 m
形状 Box + 4 pan
製造者 THALES
バスタイプ PRIMA
フェーズステータス In Orbit
所有者/国 COPERN/ESA/I-EU

Most Searched